Change the Weather History Date:

Saturday, January 4, 2014

  Actual Average (KPRX) Record (KPRX)
Temperature  
Mean Temperature 49 °F -  
Max Temperature 66 °F 51 °F 73 °F (1997)
Min Temperature 32 °F 34 °F 17 °F (1999)
Degree Days  
Heating Degree Days 16    
Moisture  
Dew Point 38 °F    
Average Humidity 66    
Maximum Humidity 81    
Minimum Humidity 47    
Precipitation  
Precipitation 0.00 in - - ()
Sea Level Pressure  
Sea Level Pressure 29.92 in    
Wind  
Wind Speed 9 mph (SSE)    
Max Wind Speed 16 mph    
Max Gust Speed 25 mph    
Visibility 10 miles    
Events      
Averages and records for this station are not official NWS values.
T = Trace of Precipitation, MM = Missing Value Source: NWS Daily Summary

Daily Weather History Graph

Daily Weather History Graph

Search for Another Location

Airport or City:

Trip Planner

Search our weather history database for the weather conditions in past years. The results will help you decide how hot, cold, wet, or windy it might be!

Date:

Astronomy

Jan. 04, 2014 Rise Set
Actual Time 7:25 AM CST 5:25 PM CST
Civil Twilight 6:57 AM CST 5:52 PM CST
Nautical Twilight 6:26 AM CST 6:23 PM CST
Astronomical Twilight 5:56 AM CST 6:54 PM CST
Moon 9:43 AM CST (1/4) 9:33 PM CST (1/4)
Length of Visible Light 10h 55m
Length of Day
10h 00m
Waxing Crescent, 15% of the Moon is Illuminated
Jan 4
Waxing Crescent
Jan 7
First Quarter
Jan 15
Full
Jan 23
Last Quarter
Jan 30
New

Hourly Weather History & Observations

Time (CST) Temp. Windchill Dew Point Humidity Pressure Visibility Wind Dir Wind Speed Gust Speed Precip Events Conditions
12:15 AM 34.7 °F 28.8 °F 23.9 °F 65% 30.11 in 10.0 mi SE 6.9 mph - N/A   Clear
12:35 AM 34.7 °F 29.6 °F 23.9 °F 65% 30.11 in 10.0 mi ESE 5.8 mph - N/A   Clear
12:55 AM 34.0 °F 28.8 °F 23.9 °F 67% 30.10 in 10.0 mi SE 5.8 mph - N/A   Clear
1:15 AM 33.8 °F 27.0 °F 23.9 °F 67% 30.09 in 10.0 mi SE 8.1 mph - N/A   Clear
1:35 AM 34.2 °F 29.0 °F 24.1 °F 67% 30.09 in 10.0 mi SE 5.8 mph - N/A   Clear
1:55 AM 34.5 °F 28.6 °F 24.6 °F 67% 30.09 in 10.0 mi SE 6.9 mph - N/A   Clear
2:15 AM 34.3 °F 27.7 °F 24.8 °F 68% 30.09 in 10.0 mi SE 8.1 mph - N/A   Clear
2:35 AM 34.3 °F 27.0 °F 24.8 °F 68% 30.08 in 10.0 mi SE 9.2 mph - N/A   Clear
2:55 AM 34.0 °F 27.2 °F 25.2 °F 70% 30.08 in 10.0 mi SE 8.1 mph - N/A   Clear
3:15 AM 34.0 °F 26.6 °F 25.5 °F 71% 30.07 in 10.0 mi SE 9.2 mph - N/A   Clear
3:35 AM 33.6 °F 26.2 °F 25.5 °F 72% 30.06 in 10.0 mi SE 9.2 mph - N/A   Clear
3:55 AM 33.1 °F 25.5 °F 25.7 °F 74% 30.06 in 10.0 mi SE 9.2 mph - N/A   Clear
4:15 AM 33.1 °F 24.9 °F 25.7 °F 74% 30.05 in 10.0 mi SE 10.4 mph - N/A   Clear
4:35 AM 32.9 °F 25.9 °F 25.7 °F 75% 30.05 in 10.0 mi SE 8.1 mph - N/A   Clear
4:55 AM 32.9 °F 25.9 °F 25.9 °F 75% 30.05 in 10.0 mi SE 8.1 mph - N/A   Clear
5:15 AM 32.4 °F 24.6 °F 25.9 °F 77% 30.04 in 10.0 mi SE 9.2 mph - N/A   Clear
5:35 AM 32.4 °F 24.6 °F 26.1 °F 78% 30.03 in 10.0 mi SE 9.2 mph - N/A   Clear
5:55 AM 32.4 °F 24.6 °F 26.2 °F 78% 30.03 in 10.0 mi SE 9.2 mph - N/A   Clear
6:15 AM 32.9 °F 24.7 °F 26.6 °F 78% 30.02 in 10.0 mi SE 10.4 mph - N/A   Scattered Clouds
6:35 AM 32.9 °F 26.7 °F 27.1 °F 79% 30.01 in 10.0 mi SE 6.9 mph - N/A   Mostly Cloudy
6:55 AM 33.1 °F 25.5 °F 27.3 °F 79% 30.01 in 10.0 mi SE 9.2 mph - N/A   Overcast
7:15 AM 33.8 °F 26.4 °F 28.4 °F 81% 30.00 in 10.0 mi SE 9.2 mph - N/A   Overcast
7:35 AM 35.4 °F 28.4 °F 29.5 °F 79% 30.00 in 10.0 mi SSE 9.2 mph - N/A   Overcast
7:55 AM 37.4 °F 30.3 °F 30.9 °F 77% 30.00 in 7.0 mi SSE 10.4 mph - N/A   Overcast
8:15 AM 38.1 °F 31.2 °F 31.5 °F 77% 30.00 in 10.0 mi SSE 10.4 mph - N/A   Overcast
8:35 AM 38.8 °F 33.2 °F 32.0 °F 76% 30.00 in 10.0 mi SSE 8.1 mph - N/A   Overcast
8:55 AM 39.6 °F 33.0 °F 32.0 °F 74% 30.00 in 10.0 mi SSE 10.4 mph 16.1 mph N/A   Overcast
9:15 AM 40.6 °F 33.8 °F 32.7 °F 73% 29.99 in 10.0 mi SSE 11.5 mph 18.4 mph N/A   Overcast
9:35 AM 42.6 °F 35.2 °F 33.4 °F 70% 29.98 in 10.0 mi SSE 15.0 mph - N/A   Scattered Clouds
9:55 AM 44.1 °F 38.6 °F 34.3 °F 69% 29.99 in 10.0 mi SSE 10.4 mph - N/A   Mostly Cloudy
10:15 AM 44.8 °F 39.0 °F 34.9 °F 68% 29.98 in 7.0 mi SSE 11.5 mph 20.7 mph N/A   Mostly Cloudy
10:35 AM 46.4 °F 41.9 °F 36.0 °F 67% 29.98 in 10.0 mi SSE 9.2 mph - N/A   Mostly Cloudy
10:55 AM 47.8 °F - 37.0 °F 66% 29.97 in 10.0 mi SSE 11.5 mph - N/A   Mostly Cloudy
11:15 AM 49.3 °F - 37.9 °F 65% 29.95 in 7.0 mi SSE 11.5 mph - N/A   Mostly Cloudy
11:35 AM 50.7 °F - 39.2 °F 65% 29.93 in 10.0 mi SSE 10.4 mph - N/A   Mostly Cloudy
11:55 AM 52.9 °F - 40.6 °F 63% 29.91 in 7.0 mi SSE 11.5 mph - N/A   Mostly Cloudy
12:15 PM 54.9 °F - 42.1 °F 62% 29.89 in 10.0 mi SSE 9.2 mph - N/A   Overcast
12:35 PM 57.4 °F - 43.3 °F 59% 29.86 in 10.0 mi SSE 15.0 mph 18.4 mph N/A   Overcast
12:55 PM 60.1 °F - 44.6 °F 57% 29.84 in 10.0 mi South 13.8 mph 25.3 mph N/A   Overcast
1:15 PM 62.8 °F - 45.3 °F 53% 29.83 in 10.0 mi South 15.0 mph 21.9 mph N/A   Mostly Cloudy
1:35 PM 64.0 °F - 45.5 °F 51% 29.82 in 10.0 mi South 15.0 mph 25.3 mph N/A   Scattered Clouds
1:55 PM 64.6 °F - 45.3 °F 50% 29.81 in 10.0 mi SSW 15.0 mph 24.2 mph N/A   Scattered Clouds
2:15 PM 64.8 °F - 45.5 °F 50% 29.80 in 10.0 mi South 11.5 mph 21.9 mph N/A   Clear
2:35 PM 65.7 °F - 45.9 °F 49% 29.80 in 10.0 mi South 12.7 mph - N/A   Scattered Clouds
2:55 PM 66.6 °F - 45.5 °F 47% 29.78 in 10.0 mi South 12.7 mph 20.7 mph N/A   Scattered Clouds
3:15 PM 66.0 °F - 45.5 °F 48% 29.78 in 7.0 mi South 12.7 mph 20.7 mph N/A   Scattered Clouds
3:35 PM 66.4 °F - 45.5 °F 47% 29.78 in 10.0 mi South 12.7 mph 23.0 mph N/A   Scattered Clouds
3:55 PM 66.2 °F - 45.9 °F 48% 29.78 in 10.0 mi South 16.1 mph 19.6 mph N/A   Scattered Clouds
4:15 PM 66.0 °F - 46.4 °F 49% 29.78 in 10.0 mi South 12.7 mph 21.9 mph N/A   Scattered Clouds
4:35 PM 65.5 °F - 46.4 °F 50% 29.78 in 10.0 mi South 10.4 mph 21.9 mph N/A   Scattered Clouds
4:55 PM 64.4 °F - 46.8 °F 53% 29.78 in 10.0 mi South 8.1 mph 18.4 mph N/A   Clear
5:15 PM 63.5 °F - 46.9 °F 55% 29.78 in 10.0 mi South 8.1 mph - N/A   Clear
5:35 PM 62.4 °F - 47.1 °F 57% 29.78 in 10.0 mi South 8.1 mph - N/A   Scattered Clouds
5:55 PM 61.5 °F - 47.3 °F 60% 29.79 in 10.0 mi SSE 6.9 mph - N/A   Mostly Cloudy
6:15 PM 60.1 °F - 47.3 °F 63% 29.79 in 10.0 mi SE 5.8 mph - N/A   Clear
6:35 PM 60.6 °F - 47.7 °F 62% 29.80 in 10.0 mi SSE 5.8 mph - N/A   Mostly Cloudy
6:55 PM 60.1 °F - 48.2 °F 65% 29.80 in 10.0 mi SSE 6.9 mph - N/A   Scattered Clouds
7:15 PM 61.7 °F - 48.7 °F 62% 29.81 in 10.0 mi SSE 8.1 mph - N/A   Mostly Cloudy
7:35 PM 61.3 °F - 48.7 °F 63% 29.81 in 10.0 mi SSE 6.9 mph - N/A   Overcast
7:55 PM 61.3 °F - 49.1 °F 64% 29.81 in 10.0 mi SSE 9.2 mph - N/A   Overcast
8:15 PM 61.2 °F - 49.1 °F 65% 29.81 in 7.0 mi SE 8.1 mph - N/A   Overcast
8:35 PM 60.8 °F - 49.1 °F 65% 29.81 in 10.0 mi SSE 11.5 mph - N/A   Mostly Cloudy
8:55 PM 60.8 °F - 49.5 °F 66% 29.81 in 10.0 mi SSE 10.4 mph - N/A   Mostly Cloudy
9:15 PM 60.6 °F - 49.6 °F 67% 29.81 in 10.0 mi SSE 10.4 mph - N/A   Overcast
9:35 PM 60.3 °F - 49.8 °F 68% 29.81 in 10.0 mi SSE 12.7 mph 18.4 mph N/A   Mostly Cloudy
9:55 PM 59.5 °F - 49.6 °F 70% 29.81 in 10.0 mi SSE 9.2 mph - N/A   Mostly Cloudy
10:15 PM 59.7 °F - 49.8 °F 70% 29.81 in 10.0 mi SSE 10.4 mph - N/A   Overcast
10:35 PM 59.2 °F - 50.0 °F 72% 29.81 in 10.0 mi SSE 9.2 mph - N/A   Overcast
10:55 PM 59.0 °F - 50.0 °F 72% 29.80 in 10.0 mi SSE 11.5 mph - N/A   Overcast
11:15 PM 57.9 °F - 49.5 °F 73% 29.80 in 10.0 mi SSE 8.1 mph - N/A   Scattered Clouds
11:35 PM 57.4 °F - 49.6 °F 75% 29.79 in 10.0 mi SSE 9.2 mph - N/A   Scattered Clouds
11:55 PM 57.7 °F - 50.0 °F 75% 29.79 in 10.0 mi SSE 8.1 mph - N/A   Mostly Cloudy